Content
SEND FEEDBACK

Daily
Averages
Monthly
Summary
Dominican Republic

SAN JUAN DE LA MAGUANA, DOMINICAN REPUBLIC


Home > Caribbean > Dominican Republic
Elevation: 3529 feet     Latitude: 18 54N     Longitude: 070 43W

WEATHER
 
SELECT A DAY
Number of Records: 146,322;   Date Range: 7/1/96 - 12/25/14
 
SHARE

PRINT THIS DATA

[ ← Previous Day ]
WEATHER ALMANAC - JANUARY 31, 2013
[ Next Day → ]
[ °C ]   °F
Weather ElementAverageHighLow
Temperature70.4 °F78.8 °F (3:00 pm) (4:00 am)
Dewpoint70.7 °F73.4 °F (10:00 am)67 °F (8:00 am)
Humidity93.1 %100 % (1:00 am)77 % (2:00 pm)
Barometer30.05 in30.12 in (11:00 am)30.01 in (3:30 pm)
Wind Speed4.4 mph11.5 mph (3:00 pm)
Weather ElementAverage
Visibility5.3 mi
Wind DirectionENE (83.5 °)

Weather ElementTotal
Precipitation---
Heating Degree Days25.6 (Base 65)
Averaged from 29 records on January 31, 2013
WEATHER CONDITIONS BREAKOUT
WIND DIRECTION BREAKOUT
WEATHER BY HOUR - JANUARY 31, 2013
[ °C ]   °F
Local TimeTemperatureDewpointHumidityBarometerVisibilityWind DirectionWind SpeedGust SpeedPrecipitationEventsConditions
1:00 AM69.8 °F69.8 °F100 %30.04 in6.2 miESE (120°)5.8 mphPartly Cloudy
2:00 AM69.8 °F69.8 °F100 %30.04 in6.2 miSE (130°)4.6 mphScattered Clouds
3:00 AM69.8 °F69.8 °F100 %30.04 in6.2 miEast (100°)10.4 mphMostly Cloudy
4:00 AM0.0 °F68.0 °F30.04 in6.2 miCalmMostly Cloudy
6:00 AM68.0 °F68.0 °F100 %30.04 in6.2 miVariable3.5 mphScattered Clouds
7:00 AM68.0 °F68.0 °F100 %30.04 in6.2 miCalmScattered Clouds
8:00 AM68.0 °F68.0 °F100 %30.06 in6.2 miCalmMostly Cloudy
8:00 AM68.0 °F67.0 °F96 %30.07 in6.0 miCalmHaze
9:00 AM69.8 °F68.0 °F94 %30.09 in4.3 miCalmMostly Cloudy
10:00 AM73.4 °F73.4 °F100 %30.09 in4.3 miESE (110°)5.8 mphScattered Clouds
11:00 AM74.0 °F73.0 °F96 %30.12 in6.0 miESE (110°)6.7 mphHaze
11:00 AM73.4 °F73.4 °F100 %30.12 in6.2 miESE (110°)5.8 mphMostly Cloudy
12:00 PM77.0 °F71.6 °F83 %30.09 in6.2 miESE (120°)6.9 mphMostly Cloudy
1:00 PM77.0 °F71.6 °F83 %30.06 in4.3 miSE (130°)6.9 mphMostly Cloudy
2:00 PM75.2 °F69.8 °F83 %30.06 in6.2 miSE (130°)5.8 mphScattered Clouds
2:00 PM76.0 °F70.0 °F77 %30.06 in6.0 miSE (130°)6.7 mphRainLight Rain Showers
3:00 PM78.8 °F71.6 °F78 %30.04 in3.7 miEast (100°)11.5 mphRainLight Rain
3:30 PM75.2 °F73.4 °F94 %30.01 in4.3 miSE (140°)6.9 mphScattered Clouds
4:00 PM77.0 °F73.4 °F89 %30.01 in4.3 miSE (140°)6.9 mphScattered Clouds
4:15 PM77.0 °F73.4 °F89 %30.01 in3.1 miSE (140°)6.9 mphScattered Clouds
5:00 PM76.0 °F72.0 °F84 %30.02 in4.0 miESE (110°)6.7 mphRainLight Rain
5:00 PM77.0 °F71.6 °F83 %30.01 in4.3 miESE (110°)6.9 mphRainLight Rain
6:00 PM73.4 °F71.6 °F94 %30.01 in6.2 miESE (120°)6.9 mphScattered Clouds
7:00 PM73.4 °F73.4 °F100 %30.01 in6.2 miESE (120°)4.6 mphScattered Clouds
8:00 PM72.0 °F70.0 °F93 %30.03 in6.0 miCalmHaze
8:00 PM71.6 °F69.8 °F94 %30.01 in6.2 miCalmPartly Cloudy
9:00 PM71.6 °F71.6 °F100 %30.04 in6.2 miCalmPartly Cloudy
10:00 PM69.8 °F69.8 °F100 %30.06 in2.5 miCalmPartly Cloudy
11:00 PM71.0 °F70.0 °F96 %30.07 in3.0 miCalmMist
Hourly data recorded from MDCZ, located miles away from San Juan de la Maguana, Dominican Republic







STORIES FROM OUR PARTNERS